metlocid,date_time,avg_wspd,std_wspd,min_wspd,max_wspd,n_wspd,n_comments
VAAM,11/24/94,,,,,0,20
VAAM,11/25/94,5.554545447,3.449128933,0,10.5,44,29
VAAM,11/26/94,6.959722206,2.760876519,0.4,10.7,72,0
VAAM,11/27/94,6.544444453,2.77919277,0.9,10.6,72,1
VAAM,11/28/94,6.637499963,3.024940353,1.8,11.4,72,1
VAAM,11/29/94,7.054166698,2.342079132,3.5,10.9,72,0
VAAM,11/30/94,5.818055532,2.79513288,1.6,10.6,72,1
VAAM,12/1/94,5.569444435,2.955712465,0.9,10.7,72,0
VAAM,12/2/94,5.647222231,3.606760964,0.4,11.3,72,0
VAAM,12/3/94,5.020833351,3.567298191,0.3,10,72,0
VAAM,12/4/94,3.725000008,2.246922781,0.1,7.9,72,0
VAAM,12/5/94,4.994444444,2.129992995,0.4,8.6,72,0
VAAM,12/6/94,6.32361111,1.743760941,1.5,9.3,72,0
VAAM,12/7/94,7.673611121,1.833721141,2.2,10.7,72,0
VAAM,12/8/94,5.683333348,3.394817934,0.4,11,72,4
VAAM,12/9/94,4.793055551,2.161919226,0.1,7.6,72,0
VAAM,12/10/94,6.752777732,2.512558389,2.4,10.5,72,0
VAAM,12/11/94,5.244444423,3.494659437,0.2,10.6,72,0
VAAM,12/12/94,6.797222197,1.45901491,2.5,8.9,72,1
VAAM,12/13/94,5.076388891,2.976030694,0.1,11.1,72,0
VAAM,12/14/94,6.284722242,2.420898445,2.1,10.1,72,1
VAAM,12/15/94,5.15972223,2.823126826,0.5,10.9,72,1
VAAM,12/16/94,5.222222242,2.151528919,0.2,8.3,72,1
VAAM,12/17/94,3.719444447,2.53708489,0.1,8.2,72,0
VAAM,12/18/94,4.448611122,2.895260501,0.1,8.7,72,2
VAAM,12/19/94,4.919444493,2.748246047,0.2,9.6,72,0
VAAM,12/20/94,6.597222245,2.818698753,0.7,10.3,72,0
VAAM,12/21/94,7.145833304,2.253069074,3.2,11.4,72,0
VAAM,12/22/94,3.822222216,3.433686567,0,11,72,1
VAAM,12/23/94,6.118055585,1.086968502,3.8,9.1,72,1
VAAM,12/24/94,5.312499998,2.371838166,1.2,10.2,72,0
VAAM,12/25/94,6.533333307,2.371010376,0.7,10.4,72,0
VAAM,12/26/94,3.261111108,1.994609322,0,7.5,72,0
VAAM,12/27/94,1.883333328,1.328453501,0.2,4.7,72,0
VAAM,12/28/94,5.134722221,1.797506838,0.6,9.7,72,0
VAAM,12/29/94,5.063888868,1.003136694,2.6,7.2,72,1
VAAM,12/30/94,4.191836732,2.660579265,0.3,9.3,49,7
VAAM,12/31/94,,,,,0,24
VAAM,1/1/95,,,,,0,24
VAAM,1/2/95,,,,,0,24
VAAM,1/3/95,,,,,0,24
VAAM,1/4/95,,,,,0,24
VAAM,1/5/95,,,,,0,24
VAAM,1/6/95,,,,,0,24
VAAM,1/7/95,,,,,0,24
VAAM,1/8/95,,,,,0,24
VAAM,1/9/95,,,,,0,24
VAAM,1/10/95,,,,,0,24
VAAM,1/11/95,,,,,0,24
VAAM,1/12/95,,,,,0,24
VAAM,1/13/95,,,,,0,24
VAAM,1/14/95,,,,,0,24
VAAM,1/15/95,,,,,0,24
VAAM,1/16/95,,,,,0,24
VAAM,1/17/95,,,,,0,24
VAAM,1/18/95,,,,,0,24
VAAM,1/19/95,,,,,0,24
VAAM,1/20/95,8.384285654,0.912685691,6.58,9.53,7,23
VAAM,1/21/95,5.010416647,3.417081732,0.43,10.59,24,24
VAAM,1/22/95,4.391666688,2.899771633,0.05,9.89,24,24
VAAM,1/23/95,5.416666605,2.390649578,0.7,9.23,24,24
VAAM,1/24/95,6.320000043,2.860374016,1.26,10.43,24,24
VAAM,1/25/95,3.959999988,2.253175546,0.7,7.3,24,24
VAAM,1/26/95,5.825416634,2.240652043,0.78,8.26,24,24
VAAM,1/27/95,4.061250014,2.937763628,0.05,8.04,24,24
VAAM,1/28/95,5.509166663,2.57311334,1.39,9.37,24,24
VAAM,1/29/95,3.537499982,2.969797569,0.08,8.92,24,24
VAAM,1/30/95,5.050416708,2.477378495,1.26,10.05,24,24
VAAM,1/31/95,4.645416697,3.286566876,0.21,12.87,24,24
VAAM,2/1/95,13.68166665,1.161171407,10.98,15.86,24,24
VAAM,2/2/95,10.68416669,1.700881896,7.11,14.28,24,24
VAAM,2/3/95,9.018749992,1.694534264,6.14,12.43,24,24
VAAM,2/4/95,5.184999987,1.273973568,1.9,6.95,24,24
VAAM,2/5/95,12.96916668,2.844411635,5.84,18.76,24,24
VAAM,2/6/95,12.05541662,2.498154122,6.88,17.16,24,24
VAAM,2/7/95,4.112500034,3.410816948,0.26,10.09,24,24
VAAM,2/8/95,3.595833341,1.947517724,0.89,8.37,24,24
VAAM,2/9/95,8.245000064,1.489137467,5.03,10.85,24,24
VAAM,2/10/95,4.140416654,2.465477202,0.92,8.44,24,24
VAAM,2/11/95,5.474999989,2.870427938,1.13,9.49,24,24
VAAM,2/12/95,2.841249992,2.433132377,0.2,7.28,24,24
VAAM,2/13/95,4.729166696,1.576440475,1.56,6.77,24,24
VAAM,2/14/95,4.600416746,3.084142552,0.13,9.31,24,24
VAAM,2/15/95,2.563749999,2.865133434,0.07,8.05,24,24
VAAM,2/16/95,3.809583331,2.74982288,0.02,7.84,24,24
VAAM,2/17/95,2.947391306,2.696493055,0.18,8.64,23,24
VAAM,2/18/95,3.893333343,2.662388079,0.44,9.49,24,24
VAAM,2/19/95,2.477826101,1.936118354,0.11,7.13,23,24
VAAM,2/20/95,3.4166667,3.107216989,0.34,9.68,24,24
VAAM,2/21/95,5.172083358,2.599228937,0.74,10.02,24,24
VAAM,2/22/95,6.037083318,1.618124255,2.85,8.85,24,24
VAAM,2/23/95,3.682916651,2.368838416,0.51,7.88,24,24
VAAM,2/24/95,5.752083302,2.226137149,2.56,8.73,24,24
VAAM,2/25/95,2.300416706,1.260643354,0.2,4.44,24,24
VAAM,2/26/95,3.644166693,2.005154082,1.02,7.82,24,24
VAAM,2/27/95,3.259166675,1.333494649,0.36,5.09,24,24
VAAM,2/28/95,0.983750004,0.64331218,0.01,2.95,24,24
VAAM,3/1/95,2.334166648,2.742870423,0.25,8.98,24,24
VAAM,3/2/95,2.382499972,2.53729269,0.06,8.86,24,24
VAAM,3/3/95,0.508695649,0.822254675,0.01,3.06,23,24
VAAM,3/4/95,2.149583336,1.945580247,0.46,7.19,24,24
VAAM,3/5/95,3.44500002,2.620711804,0.76,9.65,24,24
VAAM,3/6/95,9.281666636,1.097287861,6.43,11.35,24,24
VAAM,3/7/95,9.18083336,1.698044628,5.78,12.65,24,24
VAAM,3/8/95,2.297916661,1.672069746,0.01,5.07,24,24
VAAM,3/9/95,1.695416649,1.443943782,0.04,5.18,24,24
VAAM,3/10/95,2.214166646,2.447934179,0.26,7.99,24,24
VAAM,3/11/95,13.51208335,3.639110097,4.1,18.28,24,24
VAAM,3/12/95,8.305416703,2.641674359,4.13,12.84,24,24
VAAM,3/13/95,1.541666675,1.16579019,0.44,4.8,24,24
VAAM,3/14/95,0.786521733,0.797254419,0.01,2.82,23,24
VAAM,3/15/95,0.620416664,0.487357373,0.01,1.78,24,24
VAAM,3/16/95,1.821666641,1.595367347,0.25,4.98,24,24
VAAM,3/17/95,7.351666719,6.30705182,0.61,17.12,24,24
VAAM,3/18/95,9.109583246,5.95928242,0.53,18.01,24,24
VAAM,3/19/95,1.052916671,0.34255408,0.54,1.82,24,24
VAAM,3/20/95,0.889130421,0.722306345,0.04,2.87,23,24
VAAM,3/21/95,0.620833329,0.408005929,0.02,1.26,24,24
VAAM,3/22/95,0.64291666,0.493069166,0.01,1.78,24,24
VAAM,3/23/95,0.881666666,0.645059256,0.03,2.82,24,24
VAAM,3/24/95,0.427000004,0.40082941,0.01,1.26,20,24
VAAM,3/25/95,0.516470587,0.456603506,0.01,1.38,17,24
VAAM,3/26/95,0.637272723,0.785142864,0.01,3.34,22,24
VAAM,3/27/95,0.785000005,0.487879413,0.06,1.83,20,24
VAAM,3/28/95,0.355652171,0.230726635,0.01,0.81,23,24
VAAM,3/29/95,0.379523809,0.307530098,0.01,1.03,21,24
VAAM,3/30/95,0.5925,0.4067608,0.01,1.55,24,24
VAAM,3/31/95,0.774583331,0.623238233,0.01,3.3,24,24
VAAM,4/1/95,2.901250022,1.917966139,0.82,6.9,24,24
VAAM,4/2/95,0.7075,0.278493618,0.08,1.27,24,24
VAAM,4/3/95,0.891249992,0.471162407,0.19,2.09,24,24
VAAM,4/4/95,0.662916661,0.296258982,0.17,1.27,24,24
VAAM,4/5/95,0.654782594,0.526755653,0.01,2.12,23,24
VAAM,4/6/95,0.763750002,0.383675729,0.23,1.67,24,24
VAAM,4/7/95,2.016666679,1.728891767,0.22,4.9,24,24
VAAM,4/8/95,1.626666658,0.968295968,0.45,3.86,24,24
VAAM,4/9/95,0.917500007,0.506687886,0.15,2.17,24,24
VAAM,4/10/95,3.302083306,2.064459002,0.52,6.56,24,24
VAAM,4/11/95,1.135000008,0.703444956,0.19,3.14,24,24
VAAM,4/12/95,0.642916671,0.315904216,0.04,1.08,24,24
VAAM,4/13/95,2.599166649,2.449645746,0.55,8.42,24,24
VAAM,4/14/95,4.280833311,2.177451442,0.71,7.79,24,24
VAAM,4/15/95,1.059166667,0.587891714,0.02,2.04,24,24
VAAM,4/16/95,1.072727263,1.458630065,0.01,5.95,22,24
VAAM,4/17/95,13.73791657,3.291410287,5.77,18.21,24,24
VAAM,4/18/95,1.498749985,1.239152232,0.45,6.22,24,24
VAAM,4/19/95,1.071250001,0.59644827,0.1,3.01,24,24
VAAM,4/20/95,9.003333405,6.287869451,0.53,16.95,24,24
VAAM,4/21/95,7.914347744,6.728993355,0.01,18.57,23,24
VAAM,4/22/95,1.362083343,0.94132184,0.01,3.39,24,24
VAAM,4/23/95,1.04916667,0.546338937,0.12,1.99,24,24
VAAM,4/24/95,3.66875001,3.208936337,0.57,10.77,24,24
VAAM,4/25/95,1.262083326,0.539870981,0.05,2.81,24,24
VAAM,4/26/95,13.18416671,3.654813243,2.69,16.59,24,24
VAAM,4/27/95,7.346250008,3.947986587,2.08,14.04,24,24
VAAM,4/28/95,1.463333321,0.754958469,0.31,3.57,24,24
VAAM,4/29/95,1.191250005,0.797808482,0.24,2.61,24,24
VAAM,4/30/95,2.108333297,2.745945008,0.01,10.61,24,24
VAAM,5/1/95,1.742916663,0.841512499,0.38,3.76,24,24
VAAM,5/2/95,0.905000004,0.493311805,0.26,2.42,24,24
VAAM,5/3/95,1.056666662,0.410711652,0.52,2.02,24,24
VAAM,5/4/95,0.821666676,0.426845526,0.16,1.88,24,24
VAAM,5/5/95,5.258750007,4.125600141,0.32,13.05,24,24
VAAM,5/6/95,8.690000008,2.239844667,3.03,12.4,24,24
VAAM,5/7/95,7.262499938,1.898775819,2.45,9.98,24,24
VAAM,5/8/95,1.240416658,0.795872363,0.49,3.3,24,24
VAAM,5/9/95,0.497083331,0.361968996,0.05,1.28,24,24
VAAM,5/10/95,0.705217385,0.485974836,0.15,2.21,23,24
VAAM,5/11/95,0.382352942,0.373321738,0.01,1.32,17,24
VAAM,5/12/95,0.533333336,0.483291865,0.03,2.18,24,24
VAAM,5/13/95,7.473749896,2.913490064,2.74,11.79,24,24
VAAM,5/14/95,12.96250012,2.148041036,7.69,15.84,24,24
VAAM,5/15/95,3.673043504,3.266778282,0.08,11.28,23,24
VAAM,5/16/95,0.772173917,0.652310285,0.01,2.66,23,24
VAAM,5/17/95,1.216250007,0.665600851,0.31,2.7,24,24
VAAM,5/18/95,1.05624999,0.398091224,0.3,1.78,24,24
VAAM,5/19/95,4.919166644,5.232531089,0.68,14.17,24,24
VAAM,5/20/95,12.86791658,3.641941536,6.12,19.71,24,24
VAAM,5/21/95,2.587499995,1.85151231,0.41,5.76,24,24
VAAM,5/22/95,0.912083327,0.694042836,0.05,2.16,24,24
VAAM,5/23/95,0.5,0.378026913,0.01,1.26,24,24
VAAM,5/24/95,0.798333326,0.409003737,0.16,1.47,24,24
VAAM,5/25/95,5.106666725,5.687495643,0.23,14.95,24,24
VAAM,5/26/95,6.483333358,5.049774551,0.35,14.43,24,24
VAAM,5/27/95,0.755999997,0.703475581,0.03,2.34,20,24
VAAM,5/28/95,1.217826086,0.897278503,0.13,3.53,23,24
VAAM,5/29/95,0.800000001,0.618602912,0.09,2.21,24,24
VAAM,5/30/95,0.721052629,0.543884125,0.06,1.73,19,24
VAAM,5/31/95,0.660833331,0.487057859,0.04,1.65,24,24
VAAM,6/1/95,0.503043478,0.369378283,0.04,1.36,23,24
VAAM,6/2/95,0.457727277,0.364351115,0.01,1.14,22,24
VAAM,6/3/95,0.518636368,0.487093382,0.02,1.6,22,24
VAAM,6/4/95,2.088636346,2.450310548,0.01,8.42,22,24
VAAM,6/5/95,7.995833298,2.605717613,3.87,13.4,24,24
VAAM,6/6/95,3.475833267,3.039748059,0.61,10.49,24,24
VAAM,6/7/95,2.783749965,2.018018373,0.53,7.45,24,24
VAAM,6/8/95,1.114166669,0.718094797,0.2,3.28,24,24
VAAM,6/9/95,1.171666667,0.515563561,0.56,2.55,24,24
VAAM,6/10/95,12.41125,3.035219732,2.96,17.42,24,24
VAAM,6/11/95,15.31166677,1.840266334,11.36,18,24,24
VAAM,6/12/95,5.519166656,4.028699102,0.93,13.4,24,24
VAAM,6/13/95,19.86291667,2.322012711,14.31,23.29,24,24
VAAM,6/14/95,6.129166752,6.360795794,0.31,19.69,24,24
VAAM,6/15/95,0.959166663,0.491182386,0.31,2.07,24,24
VAAM,6/16/95,5.700833336,2.558919499,1.11,10.31,24,24
VAAM,6/17/95,2.117500002,1.154888485,0.53,4.27,24,24
VAAM,6/18/95,1.005833331,0.533307285,0.05,1.88,24,24
VAAM,6/19/95,0.897500005,0.420674925,0.31,1.82,24,24
VAAM,6/20/95,1.020833333,0.770024932,0.25,3.79,24,24
VAAM,6/21/95,0.590833329,0.39961847,0.05,1.43,24,24
VAAM,6/22/95,7.400833309,3.812307182,0.57,12.24,24,24
VAAM,6/23/95,8.331250032,2.682573866,4.21,13.19,24,24
VAAM,6/24/95,4.22541664,2.802331311,0.92,9.85,24,24
VAAM,6/25/95,14.11000006,3.625527821,2.32,17.2,24,24
VAAM,6/26/95,10.6245833,4.593805774,1.6,17.64,24,24
VAAM,6/27/95,5.89249999,4.81592397,0.42,14.44,24,24
VAAM,6/28/95,3.611250026,2.592078788,0.73,9.31,24,24
VAAM,6/29/95,7.448333273,3.197331306,1.52,13.64,24,24
VAAM,6/30/95,11.66666663,2.503560484,8.23,15.64,24,24
VAAM,7/1/95,12.13375,2.40165307,6.07,15.29,24,24
VAAM,7/2/95,2.763749997,1.515860549,0.45,5.17,24,24
VAAM,7/3/95,1.079583334,0.373496752,0.53,1.81,24,24
VAAM,7/4/95,9.5429167,4.186742516,1.67,14.03,24,24
VAAM,7/5/95,4.282083278,3.605600622,0.65,12.61,24,24
VAAM,7/6/95,1.808750021,1.19504893,0.68,5.34,24,24
VAAM,7/7/95,10.07999993,4.076857207,3.07,17.83,24,24
VAAM,7/8/95,3.505833308,2.908094968,0.62,10.28,24,24
VAAM,7/9/95,5.878333272,4.879059576,0.35,12.87,24,24
VAAM,7/10/95,6.719166731,2.244486868,1.65,10.05,24,24
VAAM,7/11/95,1.022173904,0.672647112,0.03,2.12,23,24
VAAM,7/12/95,1.81958334,1.13119593,0.27,5.03,24,24
VAAM,7/13/95,0.986521752,0.932599568,0.08,4.05,23,24
VAAM,7/14/95,4.077083346,2.630755391,0.46,9.12,24,24
VAAM,7/15/95,1.265833336,0.535309057,0.19,2.43,24,24
VAAM,7/16/95,1.236249993,0.663841337,0.13,2.51,24,24
VAAM,7/17/95,0.962083327,0.445294037,0.03,1.77,24,24
VAAM,7/18/95,1.935000033,2.676085789,0.01,7.55,24,24
VAAM,7/19/95,6.952916672,1.622741836,2.04,9.05,24,24
VAAM,7/20/95,10.77500004,5.757294097,4.5,18.86,24,24
VAAM,7/21/95,10.54999997,5.300611927,4.86,21.49,24,24
VAAM,7/22/95,4.948749999,2.813307365,1.43,10.28,24,24
VAAM,7/23/95,1.792500009,1.472626399,0.68,8.02,24,24
VAAM,7/24/95,1.623750019,0.726658924,0.85,3.89,24,24
VAAM,7/25/95,0.878333326,0.49822874,0.04,1.79,24,24
VAAM,7/26/95,1.361666669,1.433104482,0.16,5.85,24,24
VAAM,7/27/95,6.331666638,4.106084203,1.16,14.76,24,24
VAAM,7/28/95,4.75499997,3.778217838,0.86,12.78,24,24
VAAM,7/29/95,0.799166661,0.470909537,0.06,1.77,24,24
VAAM,7/30/95,0.875217388,0.67273438,0.1,2.41,23,24
VAAM,7/31/95,0.730833341,0.516845925,0.05,2.01,24,24
VAAM,8/1/95,4.382916572,6.35662759,0.17,17.46,24,24
VAAM,8/2/95,14.03666671,3.138438554,9.1,19.97,24,24
VAAM,8/3/95,8.311249981,4.674423704,3.08,17.57,24,24
VAAM,8/4/95,11.8770832,3.322036269,6.38,17.14,24,24
VAAM,8/5/95,13.45833341,1.294189821,11.14,15.95,24,24
VAAM,8/6/95,12.89166665,0.87253083,11.09,14.67,24,24
VAAM,8/7/95,3.786250006,3.830640595,0.33,12.43,24,24
VAAM,8/8/95,1.093333335,0.55807639,0.4,2.86,24,24
VAAM,8/9/95,0.675,0.371799386,0.21,1.41,24,24
VAAM,8/10/95,3.963750049,3.348027121,0.21,11.02,24,24
VAAM,8/11/95,7.220833361,3.346138536,3.07,13.11,24,24
VAAM,8/12/95,1.89875002,1.170396891,0.64,5.07,24,24
VAAM,8/13/95,1.152083322,0.510148997,0.51,2.53,24,24
VAAM,8/14/95,6.475000034,2.804152181,1.94,10.88,24,24
VAAM,8/15/95,8.252083302,3.751952531,2.26,14.87,24,24
VAAM,8/16/95,11.07458349,5.00122425,3.41,17.3,24,24
VAAM,8/17/95,1.077826074,0.566752737,0.32,2.11,23,24
VAAM,8/18/95,0.592173912,0.507721796,0.02,1.91,23,24
VAAM,8/19/95,0.94416667,0.398212494,0.35,1.69,24,24
VAAM,8/20/95,0.565714286,0.417583182,0.03,1.28,21,24
VAAM,8/21/95,0.807826086,0.552473418,0.02,2.01,23,24
VAAM,8/22/95,10.75624996,5.393462048,0.47,15.57,24,24
VAAM,8/23/95,2.964166649,3.75009664,0.35,11.86,24,24
VAAM,8/24/95,1.375833335,0.63518513,0.19,2.71,24,24
VAAM,8/25/95,1.158750002,0.580841311,0.2,2.29,24,24
VAAM,8/26/95,1.14499999,0.571519706,0.14,2,24,24
VAAM,8/27/95,9.70041673,6.65050806,0.29,18.01,24,24
VAAM,8/28/95,2.629999958,2.442536003,0.78,9.65,24,24
VAAM,8/29/95,1.054166671,0.496211019,0.32,2.16,24,24
VAAM,8/30/95,0.860416661,0.451543038,0.09,1.66,24,24
VAAM,8/31/95,0.756249997,0.426592281,0.07,1.67,24,24
VAAM,9/1/95,0.468333336,0.299080716,0.01,1.26,24,24
VAAM,9/2/95,0.3895,0.429142046,0.01,1.46,20,24
VAAM,9/3/95,0.732857137,0.550591875,0.01,2.34,21,24
VAAM,9/4/95,0.602173916,0.530899388,0.01,2.15,23,24
VAAM,9/5/95,0.719166661,0.462365523,0.14,1.78,24,24
VAAM,9/6/95,0.691666664,0.318415459,0.01,1.47,24,24
VAAM,9/7/95,0.936666662,0.493026734,0.24,2.04,24,24
VAAM,9/8/95,0.733749998,0.273842429,0.39,1.46,24,24
VAAM,9/9/95,0.568260872,0.404201257,0.03,1.4,23,24
VAAM,9/10/95,0.672499993,0.485558547,0.01,1.64,20,24
VAAM,9/11/95,0.486363644,0.440989651,0.01,1.59,22,24
VAAM,9/12/95,0.841250002,0.336094096,0.22,1.44,24,24
VAAM,9/13/95,0.266111112,0.313990241,0.01,0.95,18,24
VAAM,9/14/95,3.757916635,3.434888706,0.01,9.42,24,24
VAAM,9/15/95,10.74249998,3.19712394,2.74,16.49,24,24
VAAM,9/16/95,8.321666658,1.926072039,4.73,11.78,24,24
VAAM,9/17/95,8.783749978,1.627315203,4.26,11.3,24,24
VAAM,9/18/95,10.14791663,2.714904054,3.25,13.76,24,24
VAAM,9/19/95,2.467083342,1.673201786,0.45,6.21,24,24
VAAM,9/20/95,10.5979168,4.416376707,0.91,16.78,24,24
VAAM,9/21/95,0.996521731,0.697929456,0.07,2.78,23,24
VAAM,9/22/95,0.749999996,0.601943826,0.01,2.38,23,24
VAAM,9/23/95,1.215833348,1.651431344,0.02,6.03,24,24
VAAM,9/24/95,6.181249966,1.747565558,2.34,9.51,24,24
VAAM,9/25/95,3.580416635,2.795408456,0.86,9.89,24,24
VAAM,9/26/95,9.731249978,5.443488566,0.57,15.73,24,24
VAAM,9/27/95,2.704166669,3.319337193,0.05,10.63,24,24
VAAM,9/28/95,2.020833341,2.109326957,0.06,7.3,24,24
VAAM,9/29/95,1.976666664,1.524842586,0.63,6.4,24,24
VAAM,9/30/95,2.457916677,2.372989276,0.18,7.87,24,24
VAAM,10/1/95,6.890833457,2.72997046,2.66,11.81,24,24
VAAM,10/2/95,4.879166707,2.699193009,0.99,11.09,24,24
VAAM,10/3/95,4.582916635,3.053911899,0.32,10.3,24,24
VAAM,10/4/95,8.950833326,5.456839248,1.43,15.42,24,24
VAAM,10/5/95,6.624999906,4.128435795,1.18,13.32,24,24
VAAM,10/6/95,4.427083311,2.714917684,0.1,9.87,24,24
VAAM,10/7/95,0.746666669,0.496313955,0.13,1.74,24,24
VAAM,10/8/95,1.119999999,0.549497796,0.14,2.17,24,24
VAAM,10/9/95,1.97208332,1.326164712,0.27,4.43,24,24
VAAM,10/10/95,0.941666657,0.567884444,0.09,2.59,24,24
VAAM,10/11/95,0.667391305,0.781346264,0.01,2.68,23,24
VAAM,10/12/95,1.492083336,1.157752622,0.12,4.1,24,24
VAAM,10/13/95,2.954999993,2.098427984,1,8.38,24,24
VAAM,10/14/95,2.661666657,1.907157336,0.84,6.72,24,24
VAAM,10/15/95,4.087916714,2.285938104,0.3,8.75,24,24
VAAM,10/16/95,1.338333334,0.820183797,0.03,3.21,24,24
VAAM,10/17/95,1.578333308,0.907426663,0.31,3.6,24,24
VAAM,10/18/95,1.24130434,1.200656245,0.01,4.49,23,24
VAAM,10/19/95,1.83869563,1.788867828,0.01,5.52,23,24
VAAM,10/20/95,1.077083329,1.123517297,0.07,4.17,24,24
VAAM,10/21/95,6.007500035,2.37899736,0.74,9.09,24,24
VAAM,10/22/95,0.756250002,0.583548451,0.05,2.54,24,24
VAAM,10/23/95,0.78291667,0.726501323,0.05,2.46,24,24
VAAM,10/24/95,1.20958333,1.600058352,0.02,6.48,24,24
VAAM,10/25/95,8.862083311,4.450470419,1.38,14.54,24,24
VAAM,10/26/95,2.493749972,2.659461824,0.04,8.98,24,24
VAAM,10/27/95,1.878750003,1.337142707,0.2,5.3,24,24
VAAM,10/28/95,1.790833342,1.088660592,0.01,3.6,24,24
VAAM,10/29/95,1.97083332,1.450396993,0.1,5.88,24,24
VAAM,10/30/95,1.715833333,1.918783408,0.01,7.83,24,24
VAAM,10/31/95,3.168333352,3.18449739,0.5,10.27,24,24
VAAM,11/1/95,5.127083331,2.850562868,1.08,9.58,24,24
VAAM,11/2/95,3.917500002,2.517271189,0.44,8.85,24,24
VAAM,11/3/95,7.552916676,2.923774353,2.45,12.38,24,24
VAAM,11/4/95,6.985833317,2.482101026,2.03,11.3,24,24
VAAM,11/5/95,7.124166628,1.307659368,4.03,9.08,24,24
VAAM,11/6/95,4.52416662,3.154622404,0.36,10.29,24,24
VAAM,11/7/95,6.629583304,3.543261216,0.6,11.85,24,24
VAAM,11/8/95,6.539166689,2.593764968,1.28,10.79,24,24
VAAM,11/9/95,4.920833324,3.300395165,0.39,10.77,24,24
VAAM,11/10/95,6.389166653,1.633518267,3.29,10.88,24,24
VAAM,11/11/95,9.641250034,1.912881535,4.95,13.47,24,24
VAAM,11/12/95,6.774166723,2.281725039,2.96,11.31,24,24
VAAM,11/13/95,7.224583368,1.8516315,4.38,12.18,24,24
VAAM,11/14/95,5.614166667,3.372363264,0.61,11.09,24,24
VAAM,11/15/95,3.860000011,3.195069565,0.01,8.91,24,24
VAAM,11/16/95,2.971666667,2.073003849,0.01,6.77,24,24
VAAM,11/17/95,5.594583288,3.097766307,0.63,9.53,24,24
VAAM,11/18/95,4.606666697,2.882481827,0.55,9.31,24,24
VAAM,11/19/95,4.968333328,3.954987663,0.32,10.93,24,24
VAAM,11/20/95,6.501666685,2.130461662,3.24,11.68,24,24
VAAM,11/21/95,5.510161244,2.159472786,1.15,9.63,62,12
VAAM,11/22/95,5.990208335,1.995623604,1.55,9.63,96,0
VAAM,11/23/95,8.408125026,2.29944677,1.71,12.6,96,0
VAAM,11/24/95,8.095208364,2.714689484,2.24,12.1,96,0
VAAM,11/25/95,6.708333346,3.556044442,0.49,14.1,96,0
VAAM,11/26/95,11.54020829,2.828511193,3.92,16.08,96,0
VAAM,11/27/95,5.415000005,1.853901153,1.08,9.93,96,0
VAAM,11/28/95,5.996041661,1.579907682,1.44,8.87,96,0
VAAM,11/29/95,4.500312526,1.664622918,0.9,8.76,96,0
VAAM,11/30/95,5.910520842,2.694424812,0.91,9.65,96,0
VAAM,12/1/95,5.507499975,3.079983227,0.2,10.16,96,0
VAAM,12/2/95,5.458437496,3.464238157,0.38,10.24,96,0
VAAM,12/3/95,5.159479166,3.322362002,0.11,10.7,96,0
VAAM,12/4/95,6.593645848,2.056301294,2.28,10.22,96,0
VAAM,12/5/95,6.052187495,2.884747611,0.18,9.39,96,0
VAAM,12/6/95,3.703854183,2.140499393,0,8.02,96,0
VAAM,12/7/95,4.978437504,2.077015216,0.77,9.18,96,0
VAAM,12/8/95,6.223333328,2.068518222,1.62,9.63,96,0
VAAM,12/9/95,6.393958299,2.542962803,0.21,10.97,96,0
VAAM,12/10/95,5.119999995,1.781185889,0.89,8.56,96,0
VAAM,12/11/95,6.24968751,2.068611804,1.28,11.52,96,0
VAAM,12/12/95,6.848437483,2.655888113,1.77,11.84,96,0
VAAM,12/13/95,5.219270837,2.085899143,0.62,9.61,96,0
VAAM,12/14/95,3.4959375,2.171483881,0.2,7.41,96,0
VAAM,12/15/95,4.035833333,2.263887971,0.42,8.04,96,0
VAAM,12/16/95,6.76312505,2.523229496,0.87,10.06,96,0
VAAM,12/17/95,6.263645854,2.716638068,0.44,10.34,96,0
VAAM,12/18/95,5.373750014,2.589964136,0.07,9.22,96,0
VAAM,12/19/95,5.928020849,3.404340783,0.25,11.15,96,0
VAAM,12/20/95,5.914583335,2.191871066,1.11,9.21,96,0
VAAM,12/21/95,3.929479171,2.184072204,0.24,8.81,96,0
VAAM,12/22/95,6.019062487,2.150216653,2.55,11,96,0
VAAM,12/23/95,3.658750008,1.625838268,0.41,7.21,96,0
VAAM,12/24/95,6.175000016,3.022615467,0.29,10.16,96,0
VAAM,12/25/95,5.881354178,1.336308845,3.02,8.6,96,0
VAAM,12/26/95,2.937187502,1.283880395,0.77,6.37,96,0
VAAM,12/27/95,4.310937506,2.064571364,0.61,8.29,96,0
VAAM,12/28/95,5.663749982,2.729757732,0.92,9.61,96,0
VAAM,12/29/95,5.387395822,3.00711479,0.37,10.02,96,0
VAAM,12/30/95,4.505624997,1.510832328,1.37,7.14,96,0
VAAM,12/31/95,3.691666663,2.389073235,0.03,8.88,96,0
VAAM,1/1/96,5.03989581,3.574099338,0.44,10.59,96,0
VAAM,1/2/96,6.640520796,1.737436944,2,9.81,96,0
VAAM,1/3/96,5.660520819,1.965370908,0.85,8.59,96,0
VAAM,1/4/96,3.267604157,2.013327038,0.09,6.51,96,0
VAAM,1/5/96,5.106041658,3.096821962,0.41,10.48,96,0
VAAM,1/6/96,4.323958325,2.485630486,0.16,8.27,96,0
VAAM,1/7/96,4.504479155,1.701814427,0.47,7.94,96,0
VAAM,1/8/96,5.603333332,2.585823156,0.65,9.44,96,0
VAAM,1/9/96,4.641250002,2.654389924,0.29,11.05,96,0
VAAM,1/10/96,3.609583349,1.571851026,0.61,6.34,96,0
VAAM,1/11/96,4.686875003,3.55909695,0.28,11.44,96,0
VAAM,1/12/96,6.831250002,1.270192907,4.6,8.62,96,0
VAAM,1/13/96,5.771562477,2.121858304,1.35,9.09,96,0
VAAM,1/14/96,3.948958333,1.380007996,0.45,7.12,96,0
VAAM,1/15/96,4.15416667,2.758779933,0.29,8.31,96,0
VAAM,1/16/96,3.580208333,2.30966846,0.39,7.7,96,0
VAAM,1/17/96,3.149687507,1.543694453,0.35,6.77,96,0
VAAM,1/18/96,4.870520813,2.384230346,0.23,9.15,96,0
VAAM,1/19/96,3.751875016,2.041626476,0.42,7.55,96,0
VAAM,1/20/96,5.106354157,2.837032967,0.76,10.02,96,0
VAAM,1/21/96,3.15260416,1.850604593,0.19,5.84,96,0
VAAM,1/22/96,6.060833332,1.365853225,2.71,9.32,96,0
VAAM,1/23/96,4.245760878,3.018593369,0.41,11,92,0
VAAM,1/24/96,4.198958336,3.174619582,0,10.2,96,0
VAAM,1/25/96,3.038541663,2.518536298,0.1,9.7,96,0
VAAM,1/26/96,7.461458301,1.746778616,3.4,10.5,96,0
VAAM,1/27/96,6.423958358,2.808736186,0.7,12.1,96,0
VAAM,1/28/96,8.236458339,2.047649198,2,12.6,96,0
VAAM,1/29/96,7.873958344,2.332166134,2,12.1,96,0
VAAM,1/30/96,7.568750009,2.02912026,2.4,12.5,96,0
VAAM,1/31/96,5.480208332,3.170509515,0.6,12.1,96,0
VAAM,2/1/96,5.798958352,1.603581188,0.9,9,96,0
VAAM,2/2/96,4.434375016,2.949355983,0.3,9.4,96,0
VAAM,2/3/96,4.63020833,3.709535914,0,11.1,96,1
VAAM,2/4/96,3.082291672,2.844865919,0,9.9,96,0
VAAM,2/5/96,3.415625014,2.49240229,0.2,8.1,96,0
VAAM,2/6/96,3.044791674,2.246066504,0.1,7.6,96,0
VAAM,2/7/96,7.905208326,1.945378872,1.6,11.2,96,0
VAAM,2/8/96,6.660416676,1.93475032,1.2,10.8,96,0
VAAM,2/9/96,2.533333331,2.383481155,0,7.6,96,0
VAAM,2/10/96,6.278124997,2.627474396,0.9,9.9,96,0
VAAM,2/11/96,4.263541673,3.172816119,0.1,9.4,96,0
VAAM,2/12/96,4.434374985,2.590176895,0.3,8.7,96,0
VAAM,2/13/96,4.353125008,2.587823854,0.5,8.6,96,0
VAAM,2/14/96,2.310416685,2.089698024,0.1,9.6,96,0
VAAM,2/15/96,3.942708331,1.804599096,0.9,6.9,96,0
VAAM,2/16/96,4.780208329,2.642790387,0.3,9.3,96,0
VAAM,2/17/96,3.180208313,2.006600666,0.4,7.8,96,0
VAAM,2/18/96,6.750000007,1.363200566,1.8,8.6,96,0
VAAM,2/19/96,4.53645832,2.42131411,0.3,9.9,96,0
VAAM,2/20/96,2.825000003,2.190121356,0,7.5,96,1
VAAM,2/21/96,2.92916666,2.189925091,0.2,6.7,96,0
VAAM,2/22/96,5.570833356,1.736476599,1.4,9,96,0
VAAM,2/23/96,2.696875008,2.691798587,0,7.5,96,0
VAAM,2/24/96,3.435416667,2.406962665,0,8.4,96,0
VAAM,2/25/96,3.011458338,1.439361708,0,5.8,96,1
VAAM,2/26/96,1.287499998,1.344560187,0,5.7,96,1
VAAM,2/27/96,1.678125,1.316470807,0,5.3,96,0